FW2982 Weather Reports


Display with metric or nautical units.
time (UTC)temp
F
wind
direction
speed
MPH
gust
MPH
rain 1hr
in
rain 24hr
in
rain mn
in
humidity
%
barometer
mb
20260903014740 72 73 0.0 0.0 0.00 0.18 0.18 96 1014.6
20260903014240 73 73 0.0 0.0 0.00 0.18 0.18 96 1014.6
20260903013741 73 73 0.0 0.0 0.00 0.18 0.18 96 1014.8
20260903013519 73 73 0.0 0.0 0.00 0.18 0.18 96 1015.0
20260903012740 73 73 0.0 0.0 0.00 0.18 0.18 96 1015.0
20260903012243 73 73 0.0 0.0 0.00 0.18 0.18 96 1015.0
20260903012013 73 73 0.0 0.0 0.00 0.18 0.18 95 1015.2
20260903011231 73 73 0.0 0.0 0.00 0.18 0.18 96 1015.2
20260903010731 73 73 0.0 0.0 0.00 0.18 0.18 95 1015.4
20260903010232 73 73 0.0 0.0 0.00 0.18 0.18 96 1015.3
20260903005731 73 73 0.0 0.0 0.00 0.18 0.18 95 1015.2
20260903005513 73 73 0.0 0.0 0.00 0.18 0.18 95 1015.2
20260903004733 73 73 0.0 0.0 0.00 0.18 0.18 95 1015.3
20260903004230 73 73 0.0 1.0 0.00 0.18 0.18 95 1015.3
20260903003751 74 73 0.0 0.0 0.00 0.18 0.18 95 1015.1
20260903003744 73 73 0.0 1.0 0.00 0.18 0.18 95 1015.2
20260903002731 74 73 0.0 0.0 0.00 0.18 0.18 95 1015.0
20260903002232 74 73 0.0 0.0 0.00 0.18 0.18 95 1015.1
20260903001732 74 73 0.0 0.0 0.00 0.18 0.18 95 1015.1
20260903001231 74 73 0.0 0.0 0.00 0.18 0.18 95 1015.2
20260903001013 74 73 0.0 0.0 0.00 0.18 0.18 95 1015.3
20260903000233 74 73 0.0 0.0 0.00 0.18 0.18 95 1015.5
20260902235731 74 73 0.0 0.0 0.00 0.18 0.18 95 1015.5
20260902235232 74 73 0.0 0.0 0.00 0.18 0.18 95 1015.4
20260902234733 74 73 0.0 1.0 0.00 0.18 0.18 95 1015.3
20260902234230 74 73 0.0 1.0 0.00 0.18 0.18 94 1015.2
20260902233731 75 73 0.0 0.0 0.00 0.18 0.18 94 1015.2
20260902233230 75 73 0.0 0.0 0.00 0.18 0.18 94 1015.3
20260902232732 75 73 0.0 0.0 0.00 0.18 0.18 94 1015.1
20260902232231 75 73 0.0 0.0 0.00 0.18 0.18 94 1015.1
20260902231731 75 73 0.0 0.0 0.00 0.18 0.18 94 1015.3
20260902231232 75 73 0.0 0.0 0.00 0.18 0.18 94 1015.5
20260902230730 75 73 0.0 0.0 0.00 0.18 0.18 93 1015.6
20260902230232 75 73 0.0 0.0 0.00 0.18 0.18 93 1015.6
20260902230011 75 73 0.0 0.0 0.00 0.18 0.18 93 1015.5
20260902225207 75 73 0.0 1.0 0.00 0.18 0.18 93 1015.5
20260902224726 76 73 0.0 0.0 0.00 0.18 0.18 93 1015.5
20260902224719 75 73 0.0 1.0 0.00 0.18 0.18 93 1015.5
20260902223703 76 73 0.0 0.0 0.00 0.18 0.18 92 1015.6
20260902223203 76 73 0.0 0.0 0.00 0.18 0.18 93 1015.6
20260902222704 76 73 0.0 0.0 0.00 0.18 0.18 93 1015.6
20260902222203 76 73 0.0 0.0 0.00 0.18 0.18 93 1015.6
20260902221917 76 73 0.0 2.0 0.00 0.18 0.18 93 1015.5
20260902221707 76 73 0.0 2.0 0.00 0.18 0.18 93 1015.5
20260902221203 76 73 0.0 2.0 0.00 0.18 0.18 94 1015.3
20260902220704 76 73 0.0 1.0 0.00 0.18 0.18 95 1015.4
20260902220159 76 73 0.0 0.0 0.00 0.18 0.18 95 1015.5
20260902215659 76 73 0.0 2.0 0.00 0.18 0.18 95 1015.6
20260902215159 76 73 0.0 2.0 0.00 0.18 0.18 95 1015.7
20260902214657 76 73 0.0 2.0 0.00 0.18 0.18 95 1015.8
20260902214435 76 73 0.0 2.0 0.00 0.18 0.18 95 1015.9
20260902213658 76 73 0.0 1.0 0.00 0.18 0.18 95 1016.2
20260902213152 75 73 0.0 1.0 0.00 0.18 0.18 95 1016.1
20260902212652 75 73 0.0 0.0 0.00 0.18 0.18 95 1016.2
20260902212153 75 73 0.0 0.0 0.00 0.18 0.18 95 1016.1
20260902211648 75 73 0.0 1.0 0.00 0.18 0.18 95 1016.0
20260902211147 74 73 0.0 1.0 0.00 0.18 0.18 95 1015.9
20260902210648 74 73 0.0 1.0 0.00 0.18 0.18 95 1015.9
20260902210148 74 73 0.0 2.0 0.00 0.18 0.18 95 1015.8
20260902205648 74 73 0.0 2.0 0.00 0.18 0.18 95 1015.6
20260902205148 74 73 1.0 2.0 0.00 0.18 0.18 95 1015.6
20260902204711 74 73 0.0 1.0 0.00 0.18 0.18 94 1015.7
20260902204702 74 73 0.0 1.0 0.00 0.18 0.18 95 1015.7
20260902203923 74 73 0.0 1.0 0.00 0.18 0.18 94 1015.7
20260902203146 74 73 0.0 1.0 0.00 0.18 0.18 94 1015.7
20260902202644 75 73 0.0 1.0 0.00 0.18 0.18 94 1015.8
20260902202142 74 73 0.0 0.0 0.00 0.18 0.18 94 1015.9
20260902201639 74 73 0.0 0.0 0.00 0.18 0.18 94 1015.9
20260902201135 74 73 0.0 0.0 0.00 0.18 0.18 95 1016.0
20260902200634 74 73 0.0 1.0 0.00 0.18 0.18 94 1016.2
20260902200411 74 73 0.0 1.0 0.00 0.18 0.18 94 1016.1
20260902195634 74 73 0.0 0.0 0.00 0.18 0.18 94 1016.4
20260902195134 74 73 0.0 0.0 0.00 0.18 0.18 94 1016.6
20260902194633 74 73 0.0 0.0 0.01 0.18 0.18 94 1016.5
20260902194134 74 73 0.0 0.0 0.02 0.18 0.18 94 1016.2
20260902193632 74 73 0.0 0.0 0.03 0.18 0.18 94 1016.0
20260902193130 74 73 0.0 0.0 0.04 0.18 0.18 93 1015.9
20260902192632 74 73 0.0 1.0 0.06 0.18 0.18 93 1015.9
20260902192131 74 73 0.0 2.0 0.08 0.18 0.18 93 1015.7
20260902191631 74 73 1.0 2.0 0.12 0.18 0.18 93 1016.0
20260902191132 74 68 0.0 1.0 0.17 0.18 0.18 93 1015.9
20260902190630 74 68 0.0 2.0 0.18 0.18 0.18 93 1016.0
20260902190131 75 68 0.0 3.0 0.18 0.18 0.18 93 1016.1
20260902185630 74 68 2.0 3.0 0.18 0.00 0.18 92 1015.9
20260902185132 74 116 1.0 2.0 0.18 0.00 0.17 92 1016.2
20260902184631 75 127 1.0 2.0 0.17 0.00 0.17 92 1016.0
20260902184131 75 86 1.0 3.0 0.16 0.00 0.16 92 1016.0
20260902183631 75 87 2.0 4.0 0.15 0.00 0.15 92 1016.4
20260902183130 75 71 1.0 5.0 0.14 0.00 0.13 91 1016.2
20260902182631 75 49 2.0 9.0 0.12 0.00 0.12 90 1016.5
20260902182130 75 82 3.0 9.0 0.10 0.00 0.09 87 1017.2
20260902181630 78 87 3.0 12.0 0.06 0.00 0.06 83 1017.2
20260902181130 83 18 8.0 12.0 0.01 0.00 0.00 74 1017.3
20260902180629 87 72 3.0 13.0 0.00 0.00 0.00 66 1017.1
20260902180408 90 149 5.0 13.0 0.00 0.00 0.00 66 1016.9
20260902175629 90 47 2.0 5.0 0.00 0.00 0.00 69 1016.5
20260902175129 89 44 2.0 5.0 0.00 0.00 0.00 69 1016.5
20260902174629 90 87 2.0 5.0 0.00 0.00 0.00 68 1016.6
20260902174129 90 68 3.0 5.0 0.00 0.00 0.00 67 1016.7
20260902173629 91 38 2.0 5.0 0.00 0.00 0.00 67 1016.6
20260902173130 91 120 4.0 5.0 0.00 0.00 0.00 68 1016.5
20260902172629 92 56 2.0 3.0 0.00 0.00 0.00 68 1016.5
20260902172129 92 51 2.0 3.0 0.00 0.00 0.00 66 1016.6
20260902171629 91 24 1.0 3.0 0.00 0.00 0.00 68 1016.5
20260902171409 92 100 1.0 3.0 0.00 0.00 0.00 63 1016.5
20260902170629 92 102 2.0 3.0 0.00 0.00 0.00 62 1016.5
20260902170129 93 76 2.0 3.0 0.00 0.00 0.00 63 1016.2
20260902165628 94 68 0.0 3.0 0.00 0.00 0.00 63 1016.2
20260902165130 93 68 0.0 3.0 0.00 0.00 0.00 63 1016.3
20260902164905 93 61 0.0 3.0 0.00 0.00 0.00 65 1016.3
20260902164128 92 65 0.0 3.0 0.00 0.00 0.00 65 1016.4
20260902163628 92 30 1.0 3.0 0.00 0.00 0.00 69 1016.3
20260902163127 91 100 1.0 3.0 0.00 0.00 0.00 63 1016.3
20260902162627 93 66 1.0 4.0 0.00 0.00 0.00 64 1016.4
20260902162127 92 62 0.0 4.0 0.00 0.00 0.00 65 1016.4
20260902161628 91 44 0.0 2.0 0.00 0.00 0.00 66 1016.4
20260902161127 91 42 0.0 2.0 0.00 0.00 0.00 65 1016.3
20260902160627 92 45 0.0 4.0 0.00 0.00 0.00 67 1016.2
20260902160127 92 47 0.0 4.0 0.00 0.00 0.00 65 1016.2
20260902155627 94 128 0.0 2.0 0.00 0.00 0.00 62 1016.2
20260902155127 93 128 0.0 2.0 0.00 0.00 0.00 62 1016.3
20260902154628 93 131 0.0 2.0 0.00 0.00 0.00 62 1016.2
20260902154151 91 90 0.0 5.0 0.00 0.00 0.00 67 1016.2
20260902154142 92 130 1.0 2.0 0.00 0.00 0.00 64 1016.1
20260902153126 91 89 1.0 5.0 0.00 0.00 0.00 64 1016.3
20260902152627 91 69 2.0 5.0 0.00 0.00 0.00 62 1016.3
20260902152406 90 72 0.0 2.0 0.00 0.00 0.00 64 1016.2
20260902151626 93 66 0.0 3.0 0.00 0.00 0.00 64 1016.2
20260902151127 90 73 0.0 3.0 0.00 0.00 0.00 71 1016.2
20260902150626 91 42 1.0 3.0 0.00 0.00 0.00 66 1016.2
20260902150125 90 65 0.0 2.0 0.00 0.00 0.00 66 1016.1
20260902145906 89 65 0.0 5.0 0.00 0.00 0.00 68 1016.2
20260902145125 89 65 1.0 5.0 0.00 0.00 0.00 69 1016.2
20260902144626 89 109 0.0 3.0 0.00 0.00 0.00 69 1016.2
20260902144403 89 100 1.0 3.0 0.00 0.00 0.00 67 1016.1
20260902143625 88 97 1.0 3.0 0.00 0.00 0.00 68 1016.1
20260902143125 88 144 0.0 3.0 0.00 0.00 0.00 71 1016.0
20260902142904 88 72 1.0 3.0 0.00 0.00 0.00 70 1016.2
20260902142126 88 63 1.0 3.0 0.00 0.00 0.00 69 1016.1
20260902141624 88 48 2.0 4.0 0.00 0.00 0.00 71 1016.1
20260902141404 87 87 1.0 4.0 0.00 0.00 0.00 70 1016.1
20260902140624 87 44 0.0 1.0 0.00 0.00 0.00 72 1016.3
20260902140125 87 39 0.0 1.0 0.00 0.00 0.00 71 1016.3
20260902135622 87 92 0.0 2.0 0.00 0.00 0.00 71 1016.2
20260902135123 86 92 0.0 2.0 0.00 0.00 0.00 74 1016.1
20260902134622 86 92 0.0 2.0 0.00 0.00 0.00 73 1016.1
20260902134123 86 92 0.0 3.0 0.00 0.00 0.00 73 1016.0
20260902133623 85 59 1.0 3.0 0.00 0.00 0.00 75 1016.1
20260902133122 86 32 1.0 2.0 0.00 0.00 0.00 76 1016.1
20260902132621 85 30 0.0 2.0 0.00 0.00 0.00 77 1016.2
20260902132120 83 30 1.0 3.0 0.00 0.00 0.00 81 1016.1
20260902131621 83 30 1.0 3.0 0.00 0.00 0.00 78 1016.0
20260902131122 83 24 0.0 2.0 0.00 0.00 0.00 81 1016.1
20260902130620 82 24 0.0 1.0 0.00 0.00 0.00 81 1016.0
20260902130122 81 24 0.0 0.0 0.00 0.00 0.00 82 1016.0
20260902125622 80 24 0.0 0.0 0.00 0.00 0.00 82 1016.0
20260902125122 80 24 0.0 2.0 0.00 0.00 0.00 83 1016.0
20260902124620 80 24 0.0 2.0 0.00 0.00 0.00 83 1016.0
20260902124121 79 21 0.0 2.0 0.00 0.00 0.00 86 1015.9
20260902123647 77 252 1.0 2.0 0.00 0.00 0.00 89 1015.8
20260902123637 78 276 0.0 2.0 0.00 0.00 0.00 87 1015.9
20260902122620 77 252 0.0 2.0 0.00 0.00 0.00 92 1015.9
20260902122120 76 251 1.0 2.0 0.00 0.00 0.00 93 1015.8
20260902121619 76 252 0.0 0.0 0.00 0.00 0.00 95 1015.9
20260902121119 74 252 0.0 0.0 0.00 0.00 0.00 95 1016.0
20260902120619 74 252 0.0 0.0 0.00 0.00 0.00 96 1015.9
20260902120121 73 252 0.0 0.0 0.00 0.00 0.00 96 1015.9
20260902115619 73 252 0.0 0.0 0.00 0.00 0.00 96 1016.0
20260902115119 72 251 0.0 0.0 0.00 0.00 0.00 96 1015.8
20260902114857 72 251 0.0 0.0 0.00 0.00 0.00 96 1015.7
20260902114118 72 251 0.0 0.0 0.00 0.00 0.00 96 1015.7
20260902113618 72 251 0.0 0.0 0.00 0.00 0.00 96 1015.6
20260902113118 72 251 0.0 0.0 0.00 0.00 0.00 96 1015.7
20260902112618 71 251 0.0 0.0 0.00 0.00 0.00 96 1015.5
20260902112118 72 251 0.0 0.0 0.00 0.00 0.00 96 1015.5
20260902111618 72 251 0.0 0.0 0.00 0.00 0.00 96 1015.6
20260902111118 72 251 0.0 0.0 0.00 0.00 0.00 96 1015.7
20260902110618 72 251 0.0 0.0 0.00 0.00 0.00 96 1015.8
20260902110119 72 251 0.0 0.0 0.00 0.00 0.00 96 1015.7
20260902105617 71 251 0.0 0.0 0.00 0.00 0.00 95 1015.6
20260902105355 71 251 0.0 0.0 0.00 0.00 0.00 95 1015.7
20260902104618 71 251 0.0 0.0 0.00 0.00 0.00 95 1015.8
20260902104107 71 251 0.0 0.0 0.00 0.00 0.00 95 1015.8
20260902103606 71 251 0.0 0.0 0.00 0.00 0.00 95 1015.7
20260902103104 71 251 0.0 0.0 0.00 0.00 0.00 95 1015.7
20260902102603 71 252 0.0 0.0 0.00 0.00 0.00 95 1015.7
20260902102105 72 251 0.0 0.0 0.00 0.00 0.00 95 1015.7
20260902101603 72 252 0.0 0.0 0.00 0.00 0.00 95 1015.7
20260902101104 72 251 0.0 0.0 0.00 0.00 0.00 95 1015.6
20260902100840 72 251 0.0 0.0 0.00 0.00 0.00 95 1015.5
20260902095601 72 251 0.0 0.0 0.00 0.00 0.00 95 1015.5
20260902095103 72 251 0.0 0.0 0.00 0.00 0.00 95 1015.4
20260902094843 72 251 0.0 0.0 0.00 0.00 0.00 95 1015.4
20260902094102 72 251 0.0 0.0 0.00 0.00 0.00 95 1015.4
20260902093602 72 251 0.0 0.0 0.00 0.00 0.00 95 1015.3
20260902093103 72 251 0.0 0.0 0.00 0.00 0.00 95 1015.4
20260902092602 72 251 0.0 0.0 0.00 0.00 0.00 95 1015.4
20260902092102 72 251 0.0 0.0 0.00 0.00 0.00 95 1015.5
20260902091602 72 252 0.0 0.0 0.00 0.00 0.00 95 1015.4
20260902091102 72 251 0.0 0.0 0.00 0.00 0.00 95 1015.5
20260902090603 72 251 0.0 0.0 0.00 0.00 0.00 95 1015.4
20260902090034 72 251 0.0 0.0 0.00 0.00 0.00 95 1015.4
20260902085532 72 251 0.0 0.0 0.00 0.00 0.00 95 1015.3
20260902085031 72 252 0.0 0.0 0.00 0.00 0.00 95 1015.4
20260902084523 72 251 0.0 0.0 0.00 0.00 0.00 95 1015.3
20260902084018 72 251 0.0 0.0 0.00 0.00 0.00 95 1015.3
20260902083519 72 251 0.0 0.0 0.00 0.00 0.00 95 1015.3
20260902083015 72 251 0.0 0.0 0.00 0.00 0.00 95 1015.3
20260902082515 72 251 0.0 0.0 0.00 0.00 0.00 94 1015.4
20260902082016 72 251 0.0 0.0 0.00 0.00 0.00 94 1015.3
20260902081514 72 251 0.0 0.0 0.00 0.00 0.00 94 1015.3
20260902081014 72 251 0.0 0.0 0.00 0.00 0.00 94 1015.2
20260902080514 72 251 0.0 0.0 0.00 0.00 0.00 94 1015.2
20260902080014 72 251 0.0 0.0 0.00 0.00 0.00 94 1015.0
20260902075515 72 251 0.0 0.0 0.00 0.00 0.00 94 1015.1
20260902075252 73 251 0.0 0.0 0.00 0.00 0.00 94 1015.0
20260902074753 73 251 0.0 0.0 0.00 0.00 0.00 94 1015.0
20260902074014 73 251 0.0 0.0 0.00 0.00 0.00 94 1015.1
20260902073513 73 252 0.0 0.0 0.00 0.00 0.00 94 1015.0
20260902073014 73 251 0.0 0.0 0.00 0.00 0.00 94 1015.0
20260902072504 73 251 0.0 0.0 0.00 0.00 0.00 94 1015.1
20260902072003 73 251 0.0 0.0 0.00 0.00 0.00 94 1015.0
20260902071503 73 251 0.0 0.0 0.00 0.00 0.00 94 1014.9
20260902070933 73 251 0.0 0.0 0.00 0.00 0.00 94 1014.9
20260902070433 73 251 0.0 0.0 0.00 0.00 0.00 94 1014.9
20260902065933 73 251 0.0 0.0 0.00 0.00 0.00 94 1014.8
20260902065431 73 251 0.0 0.0 0.00 0.00 0.00 94 1014.9
20260902064931 73 252 0.0 0.0 0.00 0.00 0.00 94 1014.9
20260902064431 73 251 0.0 0.0 0.00 0.00 0.00 94 1014.8
20260902063933 73 251 0.0 0.0 0.00 0.00 0.00 94 1014.7
20260902063717 73 251 0.0 0.0 0.00 0.00 0.00 93 1014.8
20260902062931 74 251 0.0 0.0 0.00 0.00 0.00 94 1014.9
20260902062432 74 251 0.0 1.0 0.00 0.00 0.00 93 1014.9
20260902062238 74 251 0.0 0.0 0.00 0.00 0.00 93 1014.8
20260902061949 74 251 0.0 1.0 0.00 0.00 0.00 93 1014.8
20260902060912 74 251 0.0 0.0 0.00 0.00 0.00 94 1014.9
20260902060412 74 251 0.0 0.0 0.00 0.00 0.00 94 1014.8
20260902055912 74 251 0.0 1.0 0.00 0.00 0.00 94 1014.8
20260902055411 74 251 0.0 1.0 0.00 0.00 0.00 94 1014.9
20260902055153 74 251 0.0 1.0 0.00 0.00 0.00 93 1014.9
20260902054411 74 251 0.0 2.0 0.00 0.00 0.00 93 1014.9
20260902053912 74 251 1.0 2.0 0.00 0.00 0.00 93 1014.7
20260902053412 74 264 0.0 2.0 0.00 0.00 0.00 94 1014.8
20260902052911 74 264 0.0 3.0 0.00 0.00 0.00 93 1014.9
20260902052404 74 264 1.0 3.0 0.00 0.00 0.00 93 1014.9
20260902051903 74 262 0.0 0.0 0.00 0.00 0.00 93 1014.7
20260902051403 74 262 0.0 0.0 0.00 0.00 0.00 93 1014.7
20260902050901 74 262 0.0 0.0 0.00 0.00 0.00 93 1014.7
20260902050404 74 262 0.0 0.0 0.00 0.00 0.00 93 1014.7
20260902045904 74 262 0.0 0.0 0.00 0.00 0.00 93 1014.7
20260902045401 74 262 0.0 0.0 0.00 0.00 0.00 93 1014.6
20260902045144 74 262 0.0 0.0 0.00 0.00 0.00 93 1014.6
20260902044402 75 262 0.0 0.0 0.00 0.00 0.00 93 1014.5
20260902044138 75 262 0.0 0.0 0.00 0.00 0.00 93 1014.5
20260902043359 75 262 0.0 0.0 0.00 0.00 0.00 93 1014.4
20260902042858 75 262 0.0 0.0 0.00 0.00 0.00 93 1014.4
20260902042345 75 262 0.0 0.0 0.00 0.00 0.00 93 1014.3
20260902041845 75 262 0.0 0.0 0.00 0.00 0.00 93 1014.2
20260902041343 75 262 0.0 0.0 0.00 0.00 0.00 93 1014.2
20260902040844 75 262 0.0 0.0 0.00 0.00 0.00 92 1014.1
20260902040342 76 262 0.0 0.0 0.00 0.00 0.00 92 1014.1
20260902035839 76 262 0.0 0.0 0.00 0.00 0.00 92 1014.0
20260902035339 76 262 0.0 0.0 0.00 0.00 0.00 92 1014.0
20260902034838 76 262 0.0 0.0 0.00 0.00 0.00 92 1014.0
20260902034339 76 262 0.0 0.0 0.00 0.00 0.00 91 1014.0
20260902033831 76 262 0.0 0.0 0.00 0.00 0.00 91 1013.9
20260902033333 76 262 0.0 0.0 0.00 0.00 0.00 91 1013.9
20260902032831 77 262 0.0 0.0 0.00 0.00 0.00 91 1013.7
20260902032330 77 262 0.0 0.0 0.00 0.00 0.00 90 1013.7
20260902031817 77 262 0.0 0.0 0.00 0.00 0.00 90 1013.6
20260902031316 77 262 0.0 0.0 0.00 0.00 0.00 90 1013.5
20260902030812 77 262 0.0 0.0 0.00 0.00 0.00 90 1013.5
20260902030310 78 262 0.0 0.0 0.00 0.00 0.00 90 1013.3
20260902025807 78 262 0.0 0.0 0.00 0.00 0.00 89 1013.3
20260902025307 78 262 0.0 0.0 0.00 0.00 0.00 89 1013.3
20260902025048 78 262 0.0 0.0 0.00 0.00 0.00 88 1013.3
20260902024548 78 262 0.0 0.0 0.00 0.00 0.00 88 1013.4
20260902023809 78 262 0.0 0.0 0.00 0.00 0.00 87 1013.5
20260902023307 79 262 0.0 0.0 0.00 0.00 0.00 88 1013.6
20260902022808 79 262 0.0 0.0 0.00 0.00 0.00 86 1013.6
20260902022327 80 262 0.0 0.0 0.00 0.00 0.00 84 1013.8
20260902022319 79 262 0.0 0.0 0.00 0.00 0.00 84 1013.7
20260902021309 79 262 0.0 1.0 0.00 0.00 0.00 86 1013.8
20260902020807 79 262 0.0 1.0 0.00 0.00 0.00 88 1013.6
20260902020307 79 262 0.0 1.0 0.00 0.00 0.00 87 1013.6
20260902020045 79 262 0.0 1.0 0.00 0.00 0.00 87 1013.4
20260902015307 79 258 0.0 1.0 0.00 0.00 0.00 88 1013.4